(279692) = 2010 HN7 = 2011 FQ43

Discovered at Palomar on 2001-07-19 by NEAT.

Orbit

Orbit type: Main Belt

Note: WebGL enabled browser required.

epoch2022-01-21.0
epoch JD2459600.5
perihelion date2018-03-19.42413
perihelion JD2458196.92413
argument of perihelion (°)249.46462
ascending node (°)48.77770
inclination (°)10.46339
eccentricity0.1945283
perihelion distance (AU)2.5415529
Tisserand w.r.t. Jupiter3.2
ΔV w.r.t. Earth (km/sec)10.5
semimajor axis (AU)3.1553596
mean anomaly (°)246.81210
mean daily motion (°/day)0.17584520
aphelion distance (AU)3.769
period (years)5.6
P-vector [x]0.46148875
P-vector [y]-0.73119591
P-vector [z]-0.50237504
Q-vector [x]0.87656677
Q-vector [y]0.46302111
Q-vector [z]0.13130940
absolute magnitude15.84
phase slope0.15
uncertainty0
referenceMPO 696767
observations used251
oppositions14
arc length (days)7588
first opposition used2001
last opposition used2022
residual rms (arc-secs)0.79
perturbers coarse indicatorM-v
perturbers precise indicator003Ek
first observation date used2001-07-19.0
last observation date used2022-04-28.0
computer namePan
JD of orbit computation2456639.718990
perihelion JD uncertainty (days)4.4992E-04
argument of perihelion uncertainty (°)9.0251E-05
ascending node uncertainty (°)4.6808E-05
inclination uncertainty (°)1.4777E-05
eccentricity uncertainty 8.0356E-08
perihelion distance uncertainty (AU)2.1300E-07
Minimum Orbit Intersection Distances (in AU)
for orbit epoch: 2458200.5, reference: MPO411130
Mercury2.09284
Venus1.82022
Earth1.54705
Mars1.14373
Jupiter1.5566
Saturn5.4281
Uranus14.6778
Neptune26.2892

Observations

261 total observations over interval: 2001 07 19.30519 – 2022 06 16.171201
These data are available for download (format description).

Date (UT) J2000 RA J2000 Dec Magn Location Ref
2001 07 19.30519 21 34 41.36 -32 08 07.4 19.7   644 – Palomar Mountain/NEAT MPS 378860
2001 07 19.31593 21 34 40.96 -32 08 11.4 19.5   644 – Palomar Mountain/NEAT MPS 378860
2001 07 19.32677 21 34 40.54 -32 08 16.0 19.3   644 – Palomar Mountain/NEAT MPS 378860
2001 07 30.41181 21 26 36.78 -33 11 35.8 19.5   644 – Palomar Mountain/NEAT MPS 378860
2001 07 30.42266 21 26 36.20 -33 11 38.6 20.0   644 – Palomar Mountain/NEAT MPS 378860
2001 07 30.43360 21 26 35.68 -33 11 42.0 20.2   644 – Palomar Mountain/NEAT MPS 378860
2006 05 09.30134 15 47 58.88 -21 51 09.6 18.9 V G96 – Mt. Lemmon Survey MPS 378860
2006 05 09.30741 15 47 58.56 -21 51 10.0 18.9 V G96 – Mt. Lemmon Survey MPS 378860
2006 05 09.31315 15 47 58.20 -21 51 10.4 18.8 V G96 – Mt. Lemmon Survey MPS 378860
2006 05 09.31891 15 47 57.91 -21 51 10.9 19.0 V G96 – Mt. Lemmon Survey MPS 378860
2006 05 24.27001 15 34 10.96 -22 07 51.5 19.0 R 644 – Palomar Mountain/NEAT MPS 377351
2006 05 24.29162 15 34 09.68 -22 07 53.1 18.9 R 644 – Palomar Mountain/NEAT MPS 377351
2006 05 24.31758 15 34 08.20 -22 07 54.0 19.0 R 644 – Palomar Mountain/NEAT MPS 377351
2006 05 31.29151 15 27 47.12 -22 12 56.8 19.4 V G96 – Mt. Lemmon Survey MPS 377351
2006 05 31.29652 15 27 46.87 -22 12 57.1 19.7 V G96 – Mt. Lemmon Survey MPS 377351
2006 05 31.30169 15 27 46.54 -22 12 57.2 19.6 V G96 – Mt. Lemmon Survey MPS 377351
2007 09 12.25705 00 47 48.73 -07 57 47.0 20.2 V 703 – Catalina Sky Survey MPS 378860
2007 09 12.26350 00 47 48.48 -07 57 47.2 19.3 V 703 – Catalina Sky Survey MPS 378860
2007 09 12.26993 00 47 48.26 -07 57 48.8 20.0 V 703 – Catalina Sky Survey MPS 378860
2007 09 12.27639 00 47 47.86 -07 57 50.2 19.5 V 703 – Catalina Sky Survey MPS 378860
2007 10 04.26161 00 29 51.00 -08 56 11.6 20.3 V 703 – Catalina Sky Survey MPS 377351
2007 10 04.26811 00 29 50.67 -08 56 12.8 20.1 V 703 – Catalina Sky Survey MPS 377351
2007 10 04.27461 00 29 50.42 -08 56 12.8 19.7 V 703 – Catalina Sky Survey MPS 377351
2007 10 04.28112 00 29 50.02 -08 56 14.2 19.7 V 703 – Catalina Sky Survey MPS 377351
2007 10 11.18013 00 24 11.23 -09 03 28.4 20.1 V 703 – Catalina Sky Survey MPS 377351
2007 10 11.18675 00 24 10.87 -09 03 28.8 20.2 V 703 – Catalina Sky Survey MPS 377351
2007 10 11.19337 00 24 10.62 -09 03 29.1 20.1 V 703 – Catalina Sky Survey MPS 377351
2007 10 11.20000 00 24 10.26 -09 03 30.6 19.7 V 703 – Catalina Sky Survey MPS 377351
2008 12 07.23010 05 05 32.96 +29 44 27.4 20.6 V G96 – Mt. Lemmon Survey MPS 378860
2008 12 07.23464 05 05 32.67 +29 44 28.2 20.5 V G96 – Mt. Lemmon Survey MPS 378860
2008 12 07.23914 05 05 32.42 +29 44 28.2 20.2 V G96 – Mt. Lemmon Survey MPS 378860
2008 12 07.24361 05 05 32.13 +29 44 28.2 20.8 V G96 – Mt. Lemmon Survey MPS 378860
2010 04 16.83243 08 32 51.31 +30 22 38.4   C51 – WISE MPS 323730
2010 04 16.832433 08 32 51.29 +30 22 38.4   C51 – WISE MPS 323730
2010 04 16.964736 08 32 54.06 +30 22 07.4   C51 – WISE MPS 323730
2010 04 17.097041 08 32 56.56 +30 21 32.4   C51 – WISE MPS 323730
2010 04 17.295561 08 33 00.816 +30 20 48.23   C51 – WISE MPS 903895
2010 04 17.361649 08 33 02.398 +30 20 31.42   C51 – WISE MPS 903895
2010 04 17.493954 08 33 05.01 +30 19 55.0   C51 – WISE MPS 323730
2010 04 17.560169 08 33 06.48 +30 19 41.7   C51 – WISE MPS 323730
2010 04 18.089385 08 33 17.947 +30 17 31.99   C51 – WISE MPS 903895
2010 04 18.221690 08 33 20.71 +30 16 56.5   C51 – WISE MPS 323730
2010 04 18.353994 08 33 23.851 +30 16 25.64   C51 – WISE MPS 903895
2011 03 10.31664 12 56 05.15 +05 15 35.9 20.8 V 691 – Steward Observatory, Kitt Peak-Spacewatch MPS 377351
2011 03 10.33434 12 56 04.46 +05 15 40.0 20.9 V 691 – Steward Observatory, Kitt Peak-Spacewatch MPS 377351
2011 03 10.35204 12 56 03.78 +05 15 43.9 20.8 V 691 – Steward Observatory, Kitt Peak-Spacewatch MPS 377351
2011 03 28.26920 12 43 00.94 +06 22 45.0 20.2 V 703 – Catalina Sky Survey MPS 377351
2011 03 28.27845 12 43 00.44 +06 22 47.9 19.5 V 703 – Catalina Sky Survey MPS 377351
2011 03 28.28764 12 43 00.04 +06 22 49.1 19.8 V 703 – Catalina Sky Survey MPS 377351
2011 03 28.29684 12 42 59.61 +06 22 51.5 19.9 V 703 – Catalina Sky Survey MPS 377351
2011 04 02.25176 12 38 58.99 +06 38 44.8 20.0 V G96 – Mt. Lemmon Survey MPS 377351
2011 04 02.25977 12 38 58.59 +06 38 46.2 19.9 V G96 – Mt. Lemmon Survey MPS 377351
2011 04 02.26780 12 38 58.20 +06 38 47.6 20.7 V G96 – Mt. Lemmon Survey MPS 377351
2011 04 02.27587 12 38 57.76 +06 38 49.0 19.9 V G96 – Mt. Lemmon Survey MPS 377351
2011 04 04.36797 12 37 15.63 +06 44 53.8 20.1 V G96 – Mt. Lemmon Survey MPS 377351
2011 04 04.37560 12 37 15.24 +06 44 54.7 20.1 V G96 – Mt. Lemmon Survey MPS 377351
2011 04 04.38323 12 37 14.88 +06 44 56.3 20.2 V G96 – Mt. Lemmon Survey MPS 377351
2011 04 04.39073 12 37 14.52 +06 44 57.5 19.8 V G96 – Mt. Lemmon Survey MPS 377351
2011 05 09.16382 12 14 46.35 +07 05 30.5 20.6 V G96 – Mt. Lemmon Survey MPS 382311
2011 05 09.17188 12 14 46.14 +07 05 29.7 20.8 V G96 – Mt. Lemmon Survey MPS 382311
2011 05 09.18001 12 14 45.96 +07 05 29.0 20.6 V G96 – Mt. Lemmon Survey MPS 382311
2011 05 09.18806 12 14 45.78 +07 05 27.8 20.6 V G96 – Mt. Lemmon Survey MPS 382311
2013 07 14.57905 02 34 30.310 +09 59 20.33 21.8 w F51 – Pan-STARRS 1, Haleakala MPS 472576
2013 07 14.58300 02 34 30.536 +09 59 21.43 21.7 w F51 – Pan-STARRS 1, Haleakala MPS 472576
2013 07 14.58695 02 34 30.772 +09 59 22.45 21.9 w F51 – Pan-STARRS 1, Haleakala MPS 472576
2013 07 14.59091 02 34 31.014 +09 59 24.03 21.7 w F51 – Pan-STARRS 1, Haleakala MPS 472576
2013 10 02.59768 02 58 51.999 +13 13 10.60 20.4 i F51 – Pan-STARRS 1, Haleakala MPS 479891
2013 10 02.61167 02 58 51.517 +13 13 10.15 20.2 i F51 – Pan-STARRS 1, Haleakala MPS 479891
2013 10 05.30146 02 57 19.71 +13 11 53.6 21.0 V 691 – Steward Observatory, Kitt Peak-Spacewatch MPS 482139
2013 10 05.31916 02 57 19.06 +13 11 53.1 20.6 V 691 – Steward Observatory, Kitt Peak-Spacewatch MPS 482139
2013 10 05.33687 02 57 18.37 +13 11 51.3 20.1 V 691 – Steward Observatory, Kitt Peak-Spacewatch MPS 482139
2013 10 09.30779 02 54 46.99 +13 09 14.3 20.9 V 691 – Steward Observatory, Kitt Peak-Spacewatch MPS 482139
2013 10 09.32569 02 54 46.28 +13 09 13.7 20.3 V 691 – Steward Observatory, Kitt Peak-Spacewatch MPS 482139
2013 10 09.34359 02 54 45.52 +13 09 12.7 20.4 V 691 – Steward Observatory, Kitt Peak-Spacewatch MPS 482139
2013 10 13.33795 02 51 56.41 +13 05 45.8 20.4 V 691 – Steward Observatory, Kitt Peak-Spacewatch MPS 482139
2013 10 13.35914 02 51 55.43 +13 05 44.7 20.4 V 691 – Steward Observatory, Kitt Peak-Spacewatch MPS 482139
2013 10 13.38033 02 51 54.44 +13 05 43.3 20.5 V 691 – Steward Observatory, Kitt Peak-Spacewatch MPS 482139
2013 10 24.34590 02 43 04.17 +12 53 06.3 19.9 V G96 – Mt. Lemmon Survey MPS 490880
2013 10 24.35058 02 43 03.92 +12 53 05.6 19.8 V G96 – Mt. Lemmon Survey MPS 490880
2013 10 24.35525 02 43 03.68 +12 53 05.6 20.0 V G96 – Mt. Lemmon Survey MPS 490880
2013 10 24.35993 02 43 03.45 +12 53 05.0 19.9 V G96 – Mt. Lemmon Survey MPS 490880
2013 10 28.17988 02 39 44.05 +12 48 00.0 20.3 V 691 – Steward Observatory, Kitt Peak-Spacewatch MPS 485081
2013 10 28.19759 02 39 43.09 +12 47 58.7 20.2 V 691 – Steward Observatory, Kitt Peak-Spacewatch MPS 485081
2013 10 28.21532 02 39 42.17 +12 47 57.1 20.1 V 691 – Steward Observatory, Kitt Peak-Spacewatch MPS 485081
2013 11 04.65551 02 33 06.88 +12 37 54.5 21.0 R D29 – Purple Mountain Observatory, XuYi Station MPS 487003
2013 11 04.68733 02 33 05.26 +12 37 51.5 21.0 R D29 – Purple Mountain Observatory, XuYi Station MPS 487003
2013 11 12.17148 02 26 38.70 +12 28 38.0 20.1 V G96 – Mt. Lemmon Survey MPS 488296
2013 11 12.18039 02 26 38.26 +12 28 37.5 19.9 V G96 – Mt. Lemmon Survey MPS 488296
2013 11 12.18663 02 26 37.92 +12 28 37.2 19.8 V G96 – Mt. Lemmon Survey MPS 488296
2013 11 12.19287 02 26 37.60 +12 28 36.8 20.1 V G96 – Mt. Lemmon Survey MPS 488297
2014 11 20.45316 07 14 48.07 +31 42 35.8 21.3 V G96 – Mt. Lemmon Survey MPS 547344
2014 11 20.46483 07 14 47.85 +31 42 38.8 21.2 V G96 – Mt. Lemmon Survey MPS 547344
2014 11 20.47650 07 14 47.57 +31 42 41.4 21.4 V G96 – Mt. Lemmon Survey MPS 547344
2014 11 20.48844 07 14 47.35 +31 42 44.0 21.6 V G96 – Mt. Lemmon Survey MPS 547344
